Regional Weather Roundup
Issued by NWS San Diego, CA

Home | Current Version | Previous Version | Text Only | Print | Product List | Glossary On
Versions: 1 2 3 4 5 6 7 8 9 10 11 12 13 14 15 16 17 18 19 20 21 22 23 24 25 26 27 28 29 30 31 32 33 34 35 36 37 38 39 40 41 42 43 44 45 46 47 48 49 50
000
ASUS46 KSGX 282111
RWRSGX

SAN DIEGO HOURLY WEATHER ROUNDUP
NATIONAL WEATHER SERVICE SAN DIEGO CA
200 PM PDT THU MAY 28 2015

NOTE: "FAIR" INDICATES FEW OR NO CLOUDS BELOW 12,000 FEET WITH NO
SIGNIFICANT WEATHER AND/OR OBSTRUCTIONS TO VISIBILITY.

CAZ042-043-060-061-PZZ750-775-282200-

GREATER SAN DIEGO AREA

CITY           SKY/WX    TMP DP  RH WIND       PRES   REMARKS
LINDBERGH FLD  MOSUNNY   69  55  60 NW10      29.99F
POINT LOMA       N/A     67  57  69 W13         N/A
NATIONAL CITY    N/A     70  60  70 SW6       29.97F
CHULA VISTA      N/A     68  60  75 W8        29.90F
IMPERIAL BEACH MOSUNNY   68  56  65 NW17      29.98F
BROWN FIELD    SUNNY     69  57  65 W13G18    29.96F
MONTGOMERY FLD MOSUNNY   69  56  62 VRB7      29.97F

$$

NORTH SAN DIEGO COUNTY

CITY           SKY/WX    TMP DP  RH WIND       PRES   REMARKS
CAMP PENDLETON MOSUNNY   71  56  58 SW8       29.96F
OCEANSIDE AP   SUNNY     69  56  62 W8        29.96F
OCEANSIDE HBR    N/A     65  60  83 W10       30.00F
VISTA            N/A     71  60  68 W6        29.95F
CARLSBAD       SUNNY     67  56  67 SW8       29.96F
DEL MAR          N/A     68  59  73 CALM      30.00F
LA JOLLA SCRIP   N/A    N/A N/A N/A W3        29.95F
FALLBROOK        N/A     75  60  59 S5        29.95F
ESCONDIDO        N/A     77  60  55 NE2       29.96F
SAN MARCOS       N/A     73  60  63 CALM      29.95F
POWAY            N/A     76  60  57 S6        29.97F

$$

EAST SAN DIEGO COUNTY

CITY           SKY/WX    TMP DP  RH WIND       PRES   REMARKS
RAMONA         SUNNY     77  55  46 NW9       29.97F
SANTEE LAKES     N/A     75  60  60 SW7       29.95F
LA MESA          N/A     71  58  65 NW8       29.90F
JAMUL            N/A     75  59  58 W5        29.94F
DESCANSO N       N/A     79  54  41 W3        29.83F
MT. LAGUNA OBS   N/A     72  40  30 SW3       29.73
CAMPO            N/A     81  52  36 SW17      29.94F

$$

ORANGE COUNTY AND THE LOS ANGELES BASIN

CITY           SKY/WX    TMP DP  RH WIND       PRES   REMARKS
JOHN WAYNE AP  MOSUNNY   70  54  56 SW7       29.96F
LAKE FOREST FR   N/A     78  55  46 SW5       29.85F
SANTA ANA        N/A     78  59  52 CALM      29.91F
HUNTINGTON BCH   N/A     69  59  69 SW7       29.99F
LOS ALAMITOS   MOSUNNY   71  57  62 S9        29.96F
FULLERTON      SUNNY     76  54  46 SW8       29.94F
LONG BEACH     SUNNY     69  55  60 SW10      29.97F
L.A. AP        MOSUNNY   66  56  70 W13       29.98F
L.A. DOWNTOWN  SUNNY     74  56  53 VRB3      29.95F

$$

THE INLAND EMPIRE

CITY           SKY/WX    TMP DP  RH WIND       PRES   REMARKS
CORONA         SUNNY     79  55  43 VRB6      29.94F
CHINO          MOSUNNY   81  54  39 VRB5      29.95F
ONTARIO        MOSUNNY   80  52  37 W9        29.94F
SAN BERNARDINO MOSUNNY   82  57  42 W7        29.95F HAZE
RIVERSIDE AP   SUNNY     81  53  37 VRB5      29.94F
RIV CYN CREST    N/A     78  59  52 W7          N/A
MORENO VALLEY    N/A     84  58  40 NW6       29.93F
MARCH ARB      SUNNY     82  52  35 NW10      29.95F
HORSETHIEF CYN   N/A     80  53  38 NW3       29.91F
PERRIS           N/A     82  53  35 NW8         N/A
MENIFEE          N/A     84  55  36 SW3       30.01F
HEMET EAST       N/A     81  44  26 CALM      29.93F
FRENCH VALLEY  FAIR      79  55  44 SW5       29.96F
TEMECULA         N/A     80  58  45 SW3       29.92F

$$

SAN BERNARDINO AND RIVERSIDE COUNTY MOUNTAINS

CITY           SKY/WX    TMP DP  RH WIND       PRES   REMARKS
BIG BEAR AP    SUNNY     68  30  24 E6        30.21F
ANGELUS OAKS     N/A     74  42  32 CALM      29.85F
PINE COVE        N/A     70  44  39 W2        29.92F

$$

SOUTHERN DESERT INCLUDING THE COACHELLA VALLEY

CITY           SKY/WX    TMP DP  RH WIND       PRES   REMARKS
PALM SPRINGS   SUNNY     97  46  17 E9        29.86F
THOUSAND PALMS   N/A     96  48  19 E1        29.84F
PALM DESERT      N/A     96  51  21 SE1       29.26R
THERMAL        SUNNY     96  43  16 SE10      29.81F
BLYTHE         SUNNY     97  22   7 S8        29.85F
IMPERIAL AP    SUNNY     95  41  15 E7        29.82F
EL CENTRO NAS  MOSUNNY   95  44  17 E7        29.84F
YUMA AZ        MOSUNNY   95  33  11 S10       29.85F
MEXICALI       SUNNY     93  32  11 CALM      29.85

$$

UPPER DESERT

CITY           SKY/WX    TMP DP  RH WIND       PRES   REMARKS
VICTORVILLE AP SUNNY     91  30  11 E9        29.96F
HESPERIA         N/A     89  37  16 W7        29.98F
APPLE VALLEY     N/A     90  34  13 SW6       29.98F
PALMDALE       SUNNY     90  31  12 SW10G17   29.95F
LANCASTER      SUNNY     90  29  11 S7G20     29.94F
EDWARDS AFB    PTSUNNY   92  20   7 S5        29.91F
DAGGETT        SUNNY     93  32  11 N6        29.89F
29 PALMS N     MOSUNNY   91  28  10 VRB7      29.98F
NEEDLES        SUNNY    101  24   6 MISG      29.85F

$$

REGIONAL REPORTS

CITY           SKY/WX    TMP DP  RH WIND       PRES   REMARKS
SANTA BARBARA  MOSUNNY   65  55  70 SE9       29.97F
SANDBERG       SUNNY     82  34  17 VRB5      30.10F
LAS VEGAS NV   MOSUNNY   94  31  10 SE12G20   29.86F
PHOENIX AZ     MOSUNNY   97  31   9 S8        29.86F
TIJUANA        SUNNY     70  54  56 NW7       29.99
ENSENADA NW      N/A     65  32  28 NW3       29.95F

$$

OFFSHORE ISLANDS

CITY           SKY/WX    TMP DP  RH WIND       PRES   REMARKS
CATALINA ARPT  SUNNY     62  53  72 W8        30.00F
SAN CLEMENTE I CLOUDY    65  54  67 SW8       30.01F
SAN NICOLAS IS PTSUNNY   63  48  58 NW12      29.99F

$$

MARINE AND OFFSHORE BUOY REPORTS

STATION/POSITION SKY/WX   TEMP    WIND        PRES    SWELL
                          AIR SEA DIR/SP/G            HT/PER/DIR
                          (F)     (DEG/KT/KT) (MB)    (FT/S/D)
TANNER BANKS               59 61  330/ 12/ 16 1016.1F   5/270/14
S CLEMENTE BASIN           60 63  290/  8/ 10 1015.5F   3/210/16
SAN NICOLAS IS.               61                N/A     3/240/14
SO. S. ROSA ISLA           57 60  330/ 16/ 17 1015.1F   5/16
W. S. BARBARA CH           55 55  310/ 17/ 21 1015.1F   3/280/15
M. S. BARBARA CH           57 59  260/  6/  8 1016.5F
S. MONICA BASIN            60 64  190/  2/  4 1015.7F   3/220/16
S PEDRO CHANNEL               63                N/A     2/190/15
DANA POINT                    65                N/A     2/220/15
OCEANSIDE OFFSHR              66                N/A     3/210/14
TORREY PINES OTR              65                N/A     3/220/14
LA JOLLA 1                 64 65  310/  5/  6 1015.4F
MISSION BAY BUOY              65                N/A     3/210/13
SAN DIEGO BAY                 65              1015.7F
POINT LOMA SOUTH              65                N/A     3/210/14

$$




USA.gov is the U.S. government's official web portal to all federal, state and local government web resources and services.